SB KEPS @ AMSAT $ORB25199.1 2Line Orbital Elements 25199.AMSAT QST de W1STR AMSAT Orbital Elements for Amateur Satellites in TLE Format From Orbital Analysis Office New England Sci-Tech STEM Education Center Natick, MA July 18, 2025 To all radio amateurs These element sets describe the orbits of various satellites in use by the amateur radio community. For details see: www.amsat.org/keplerian-elements-formats/ A daily update of element sets is available at: www.amsat.org/tle/daily-bulletin.txt or without bulletin text: www.amsat.org/tle/dailytle.txt AO-07 1 07530U 74089B 25198.49089105 -.00000047 00000-0 -65093-5 0 9995 2 07530 101.9939 203.1590 0012561 51.1081 103.5745 12.53690158318579 UO-11 1 14781U 84021B 25198.42401191 .00000934 00000-0 10382-3 0 9996 2 14781 97.7566 164.0508 0007079 200.8441 159.2488 14.89471856207277 AO-27 1 22825U 93061C 25198.12010541 .00000053 00000-0 37573-4 0 9994 2 22825 98.7347 259.8593 0008485 11.0714 349.0654 14.30809267659088 FO-29 1 24278U 96046B 25198.23695263 -.00000020 00000-0 18523-4 0 9995 2 24278 98.5709 87.1688 0348964 244.9684 111.4849 13.53250580427869 NOAA-15 1 25338U 98030A 25198.81518333 .00000165 00000-0 85430-4 0 9994 2 25338 98.5338 223.0235 0009126 244.3248 115.6990 14.26997753413856 GO-32 1 25397U 98043D 25198.48551860 .00000040 00000-0 37569-4 0 9990 2 25397 98.9725 178.4001 0002376 94.9215 265.2234 14.24322498403906 ISS 1 25544U 98067A 25198.88731779 .00007881 00000-0 14626-3 0 9991 2 25544 51.6349 154.8881 0002269 90.8972 300.4545 15.49933775519929 NO-44 1 26931U 01043C 25198.50764578 .00000072 00000-0 57943-4 0 9997 2 26931 67.0510 29.7756 0006287 277.0069 83.0318 14.31749107242538 SO-50 1 27607U 02058C 25198.68732184 .00000781 00000-0 11458-3 0 9999 2 27607 64.5529 82.8983 0060463 325.7668 33.9546 14.81715160215089 CO-55 1 27844U 03031E 25198.48187628 .00000221 00000-0 11499-3 0 9993 2 27844 98.6759 206.2662 0010899 79.1580 281.0825 14.24019652144034 CO-57 1 27848U 03031J 25198.44803446 .00000210 00000-0 11162-3 0 9991 2 27848 98.6788 206.2099 0010800 94.6122 265.6290 14.23351257143751 RS-22 1 27939U 03042A 25198.87662828 .00000800 00000-0 13461-3 0 9997 2 27939 98.3311 9.2604 0010240 246.0342 250.4744 14.72423406166468 CO-58 1 28895U 05043F 25198.33660424 .00001236 00000-0 20917-3 0 9991 2 28895 98.2544 343.1699 0014499 182.4266 177.6872 14.71110863 52497 CO-65 1 32785U 08021C 25198.71278500 .00003681 00000-0 26545-3 0 9994 2 32785 97.7879 170.1704 0011926 85.4211 274.8376 15.04721645934888 CO-66 1 32791U 08021J 25198.44791147 .00010261 00000-0 48737-3 0 9997 2 32791 97.7294 179.3563 0005131 58.7183 301.4552 15.19422849936247 RS-30 1 32953U 08025A 25198.79045141 .00000030 00000-0 14325-3 0 9994 2 32953 82.5009 203.4152 0018476 325.8309 34.1581 12.43166327778280 NOAA-19 1 33591U 09005A 25198.85596677 .00000133 00000-0 95013-4 0 9992 2 33591 98.9955 263.7722 0012745 254.2017 105.7750 14.13390368847515 SRMSAT 1 37841U 11058D 25198.49811206 .00000365 00000-0 54677-4 0 9991 2 37841 19.9722 285.0935 0011836 121.3138 341.6064 14.11444839710477 ZACUBE-1 1 39417U 13066B 25198.75767690 .00003854 00000-0 33480-3 0 9993 2 39417 97.7812 155.5792 0041888 285.0153 74.6434 14.96943262630628 Delfi-N3xt 1 39428U 13066N 25198.74140855 .00003461 00000-0 35336-3 0 9998 2 39428 97.8323 115.9740 0082658 234.2591 125.0918 14.88763606624931 GOMX-1 1 39430U 13066Q 25198.86884850 .00001541 00000-0 24386-3 0 9994 2 39430 97.6803 55.1777 0133735 70.0947 291.4611 14.67764273621027 LO-74 1 39440U 13066AA 25198.82100567 .00002884 00000-0 29290-3 0 9997 2 39440 97.8499 143.1230 0063219 54.7669 305.9443 14.90147770628330 AO-73 1 39444U 13066AE 25198.37287916 .00005627 00000-0 41826-3 0 9992 2 39444 97.7847 160.4425 0040565 258.1684 101.4989 15.02749279629267 DTUSAT-2 1 40030U 14033W 25198.36673547 .00004770 00000-0 30888-3 0 9992 2 40030 98.0570 172.0278 0007382 297.4126 62.6350 15.08655733602605 EO-80 1 40032U 14033Y 25198.45132273 .00005192 00000-0 33504-3 0 9997 2 40032 98.0458 171.7187 0007145 223.1920 136.8748 15.08734713602085 LILACSAT-2 1 40908U 15049K 25198.83387001 .00010009 00000-0 25558-3 0 9993 2 40908 97.5051 220.1198 0009708 34.8485 325.3395 15.39644080544114 IO-86 1 40931U 15052B 25151.18580175 .00001241 00000-0 78118-4 0 9996 2 40931 6.0006 24.0987 0012733 338.8432 21.1169 14.78805930523047 Horyu-4 1 41340U 16012D 25198.45254644 .00018717 00000-0 47763-3 0 9995 2 41340 30.9957 236.9827 0006605 101.3998 258.7390 15.38223057518624 Lapan A3 1 41603U 16040E 25198.82690709 .00002728 00000-0 96014-4 0 9994 2 41603 97.1377 201.9390 0012496 127.2991 232.9391 15.30070965503639 CAS-2T 1 41847U 16066G 25198.18189697 .00001013 00000-0 15144-3 0 9990 2 41847 98.4189 272.3130 0346785 64.8622 298.8120 14.43590624456445 CAS-4B 1 42759U 17034B 25198.87158637 .00073330 00000-0 63151-3 0 9997 2 42759 43.0051 92.8570 0021266 203.7377 156.2510 15.68068511448602 CAS-4A 1 42761U 17034D 25198.86966386 .00079280 00000-0 63620-3 0 9998 2 42761 43.0091 89.5504 0022490 208.4245 151.5397 15.69708069448639 TechnoSat 1 42829U 17042E 25198.82235587 .00003169 00000-0 24620-3 0 9990 2 42829 97.3875 5.6957 0017096 147.4319 212.7965 15.01879722436467 AO-91 1 43017U 17073E 25198.15885752 .00008345 00000-0 42081-3 0 9997 2 43017 97.5210 67.9797 0172429 39.1476 322.2078 15.05270207414867 S-Net D 1 43186U 18014G 25198.28800433 .00004176 00000-0 24598-3 0 9998 2 43186 97.5581 100.8103 0010796 94.9489 265.2974 15.12105379408076 S-Net B 1 43187U 18014H 25198.69095465 .00003745 00000-0 22109-3 0 9992 2 43187 97.5588 101.1829 0011514 89.7818 270.4731 15.12087514408136 S-Net A 1 43188U 18014J 25198.61913850 .00004124 00000-0 24287-3 0 9993 2 43188 97.5596 101.2668 0011373 90.6048 269.6486 15.12112855408120 S-Net C 1 43189U 18014K 25198.29640399 .00003781 00000-0 22313-3 0 9999 2 43189 97.5610 100.9679 0012923 85.1774 275.0932 15.12081153406629 Ten-Koh 1 43677U 18084G 25198.46962567 .00001802 00000-0 14731-3 0 9998 2 43677 98.0851 12.2246 0008791 130.9872 229.2112 15.00709480365920 PO-101 1 43678U 18084H 25198.85299888 .00002039 00000-0 17587-3 0 9996 2 43678 98.1070 16.4432 0009065 146.5364 213.6432 14.98474195366114 QO-100 1 43700U 18090A 25198.70530088 .00000151 00000-0 00000+0 0 9994 2 43700 0.0164 63.2970 0002559 94.3304 57.8224 1.00272115 24562 MinXSS-2 1 43758U 18099A 25198.61939711 .00012870 00000-0 49196-3 0 9996 2 43758 97.4994 264.7992 0011704 30.2198 329.9713 15.26676430362775 AO-95 1 43770U 18099N 25198.10238477 .00006856 00000-0 34212-3 0 9995 2 43770 97.4888 255.7816 0012072 84.9295 275.3317 15.17767842362243 RANGE-A 1 43773U 18099R 25198.59099510 .00003290 00000-0 20959-3 0 9996 2 43773 97.4462 245.8922 0012794 66.3945 293.8627 15.09367746361955 MOVE-II 1 43780U 18099Y 25194.80194206 .15913345 26116-5 37118-3 0 9995 2 43780 97.4526 273.8800 0018736 270.1080 89.8075 16.44566529363241 SNUSat 2 1 43782U 18099AA 25198.58834184 .00005035 00000-0 27231-3 0 9998 2 43782 97.4570 252.7020 0012371 30.2742 329.9202 15.15053416362254 SnugLite 1 43784U 18099AC 25198.58568655 .00006845 00000-0 33870-3 0 9993 2 43784 97.4385 252.3388 0004154 47.4424 312.7160 15.18114351362409 ITASat 1 1 43786U 18099AE 25198.57076746 .00005190 00000-0 29425-3 0 9992 2 43786 97.4540 252.0810 0015737 77.8416 282.4578 15.13310214362203 EAGLET 1 1 43790U 18099AJ 25198.60826909 .00003004 00000-0 19196-3 0 9991 2 43790 97.4741 251.9470 0013429 63.8052 296.4557 15.09310196361809 ESEO 1 43792U 18099AL 25198.09170560 .00001128 00000-0 88713-4 0 9998 2 43792 97.4425 244.2013 0013268 37.6345 322.5807 15.02709118361452 CSIM 1 43793U 18099AM 25198.19722380 .00486883 00000-0 18893-2 0 9998 2 43793 97.4740 279.2755 0000963 187.3936 172.7321 15.85970588363585 JO-97 1 43803U 18099AX 25198.60539718 .00008618 00000-0 38551-3 0 9997 2 43803 97.4637 257.3548 0007522 25.6070 334.5536 15.21517260362556 Suomi 100 1 43804U 18099AY 25198.87996280 .00007193 00000-0 34661-3 0 9993 2 43804 97.4705 256.8118 0012399 22.8604 337.3179 15.18968348362513 ISAT 1 43879U 18111D 25198.54629748 .00016842 00000-0 56238-3 0 9991 2 43879 97.5920 113.8050 0010569 71.1055 289.1331 15.31060723357485 UWE-4 1 43880U 18111E 25198.30190516 .00013567 00000-0 51674-3 0 9993 2 43880 97.5865 111.7626 0013784 80.7537 279.5260 15.26762057359382 Sparrow 1 43881U 18111F 25198.30086681 .00018649 00000-0 59793-3 0 9997 2 43881 97.6072 116.5811 0009030 103.1855 257.0394 15.32361273357564 Prox-1 1 44339U 19036A 25198.16587560 .00009240 00000-0 11447-2 0 9999 2 44339 23.9956 174.7855 0007801 141.1487 218.9571 14.80537070323688 SONATE 1 44400U 19038Q 25185.47540524 .09032085 27445-5 31847-3 0 9995 2 44400 97.6609 216.4776 0012462 246.7970 113.2018 16.43248376333575 Taurus 1 1 44530U 19059C 25198.81089989 .00004456 00000-0 81896-3 0 9991 2 44530 98.6106 340.0354 0008008 274.2852 85.7435 14.66184747309544 Duchifat 3 1 44854U 19089C 25198.87265466 .00044197 00000-0 78037-3 0 9994 2 44854 36.9413 111.1981 0007197 274.2394 85.7541 15.49359219308885 TO-108 1 44881U 19093C 25198.81629440 .00000651 00000-0 81107-4 0 9999 2 44881 97.7913 273.6658 0015240 104.9169 255.3735 14.85662139301753 FloripaSat 1 1 44885U 19093G 25198.80636747 .00004221 00000-0 35459-3 0 9995 2 44885 97.8184 286.4932 0012623 79.0011 281.2630 14.98805791302474 RS-44 1 44909U 19096E 25198.47158735 .00000025 00000-0 57911-4 0 9990 2 44909 82.5196 202.1027 0216873 206.7108 152.2692 12.79742062259535 UPMSat 2 1 46276U 20061E 25198.20079932 .00081260 00000-0 57865-3 0 9992 2 46276 97.2411 273.9762 0001896 148.2666 211.8713 15.73599736271372 SALSAT 1 46495U 20068K 25198.46113787 .00005827 00000-0 24941-3 0 9991 2 46495 97.8626 178.2549 0012213 38.9127 321.2985 15.23163522264296 CubeSX-Sirius-HSE 1 47951U 21022V 25157.62701764 .07883385 25648-5 89537-3 0 9993 2 47951 97.4004 72.1904 0010275 223.9924 136.0557 16.36879307233400 CubeSX-HSE 1 47952U 21022W 25157.69972699 .06655353 25454-5 93288-3 0 9992 2 47952 97.3980 72.5414 0010307 219.3637 140.6911 16.34906352233436 GRBAlpha 1 47959U 21022AD 25160.45426279 .07940347 25506-5 90589-3 0 9995 2 47959 97.3899 75.6235 0011032 227.2558 132.7812 16.36806138232695 TUBIN 1 48900U 21059X 25198.84138184 .00050544 00000-0 54745-3 0 9996 2 48900 97.6771 11.2674 0003902 100.2260 259.9438 15.63409456226010 LEDSAT 1 49069U 21073D 25198.78115542 .00073983 00000-0 73407-3 0 9993 2 49069 97.3865 282.0479 0007398 282.6017 77.4415 15.65522306217400 CUTE 1 49263U 21088D 25198.76544864 .00040547 00000-0 76146-3 0 9999 2 49263 97.4493 276.1606 0008935 103.6788 256.5457 15.48457008210333 TeikyoSat 4 1 49396U 21102B 25198.51347712 .00001783 00000-0 12040-3 0 9991 2 49396 97.4083 235.5708 0012610 11.3301 348.8209 15.07769467202261 Z-Sat 1 49399U 21102E 25198.80621295 .00003126 00000-0 17196-3 0 9997 2 49399 97.3779 239.1879 0017080 336.7034 23.3422 15.14667590202766 KOSEN 1 1 49402U 21102H 25198.57717231 .00004857 00000-0 22357-3 0 9999 2 49402 97.3682 242.6713 0014158 309.7059 50.2928 15.20694885203068 HO-113 1 50466U 21131B 25198.81642285 .00000389 00000-0 13530-3 0 9995 2 50466 98.5107 287.9832 0004668 37.3350 322.8162 14.40849377186957 Foresail-1 1 52766U 22057AL 25176.64799660 .13857605 27391-5 25307-3 0 9992 2 52766 97.5832 331.2310 0012137 233.7199 258.4922 16.46795272172486 SNUGLITE 2 1 52899U 22065F 25198.37359981 .00000795 00000-0 16343-3 0 9999 2 52899 98.1734 339.9895 0007509 5.2598 354.8681 14.63281513162012 UmKA 1 (RS40S) 1 57172U 23091G 25198.83559639 .00004521 00000-0 24053-3 0 9999 2 57172 97.5556 254.0220 0013977 195.8635 164.2162 15.15684499113278 CubeBel-2 (EU11S) 1 57175U 23091K 25198.82841161 .00007625 00000-0 35787-3 0 9999 2 57175 97.5555 255.3997 0011610 201.3299 158.7453 15.19875071113369 VERONIKA 1 58261U 23174F 25198.73915157 .00284135 00000-0 12744-2 0 9995 2 58261 97.4072 287.5428 0007253 237.6821 122.3746 15.83379298 94693 ENSO 1 58470U 23185J 25198.85960508 .00056608 00000-0 70981-3 0 9992 2 58470 97.3704 275.3068 0004853 288.3198 71.7531 15.59563721 90991 EIRSAT-1 1 58472U 23185L 25198.85071201 .00157291 00000-0 99761-3 0 9994 2 58472 97.3638 277.9858 0004751 259.4585 100.6145 15.76051402 91171 SONATE-2 1 59112U 24043Q 25198.33784693 .00013877 00000-0 38792-3 0 9997 2 59112 97.5177 330.3100 0010153 345.7328 14.3627 15.36754189 76137 MO-122 1 60209U 24125G 25198.14760995 .00016181 00000-0 44366-3 0 9990 2 60209 97.2762 49.3663 0018113 8.3117 351.8424 15.37195890 57723 GRBBeta 1 60237U 24128C 25198.72971381 .00002789 00000-0 21597-3 0 9991 2 60237 61.9922 306.5136 0054528 65.7467 294.9307 15.02898742 55934 Curium One 1 60242U 24128H 25198.50169087 .00005450 00000-0 37878-3 0 9992 2 60242 61.9820 305.0279 0054419 61.9245 298.7334 15.05562923 55945 ROBUSTA-3A 1 60243U 24128J 25198.71557346 .00005162 00000-0 36458-3 0 9998 2 60243 61.9891 305.2355 0053476 59.6890 300.9477 15.05089715 55962 CatSat 1 60246U 24125J 25198.14993229 .00009385 00000-0 30818-3 0 9994 2 60246 97.2567 48.1471 0040599 322.1376 37.7012 15.30980645 55733 HYPERVIEW-1G (RS66S) 1 61772U 24199AP 25198.84866226 .00019055 00000-0 53034-3 0 9993 2 61772 97.3486 67.6508 0014727 61.1489 299.1231 15.36755144 82833 AO-123 1 61781U 24199AY 25198.87576783 .00005327 00000-0 19239-3 0 9998 2 61781 97.3503 66.1365 0017297 65.3387 294.9652 15.28769119 82733 ZIMSAT 2 1 61783U 24199BA 25198.82452776 .00035732 00000-0 80779-3 0 9990 2 61783 97.3458 68.5565 0014099 58.9408 301.3222 15.42980847 86044 HADES-R (SO-124) 1 62690U 25009CK 25198.20999501 .00033932 00000-0 11217-2 0 9993 2 62690 97.4075 278.9247 0001148 322.8507 37.2655 15.31286318 27901 HYDRA-T 1 62692U 25009CM 25198.44987709 .00034793 00000-0 11384-2 0 9999 2 62692 97.4076 279.2139 0001013 304.3762 55.7383 15.31612614 27946 JINJUSat 1B 1 63210U 25052A 25198.22681821 .00008996 00000-0 40506-3 0 9991 2 63210 97.4369 91.8817 0004405 163.8817 196.2560 15.21295319 18975 NUSHSAT 1 1 63211U 25052B 25198.28098982 .00009863 00000-0 43988-3 0 9999 2 63211 97.4358 91.9463 0004239 168.1335 192.0001 15.21594542 18985 TEVEL2-4 1 63213U 25052D 25198.23651679 .00010004 00000-0 45041-3 0 9995 2 63213 97.4275 91.7203 0002891 177.4691 182.6559 15.21269219 18977 TEVEL2-5 1 63214U 25052E 25198.23763071 .00009978 00000-0 44957-3 0 9999 2 63214 97.4275 91.7192 0002914 176.9936 183.1318 15.21245158 18972 TEVEL2-6 1 63215U 25052F 25198.24076781 .00010126 00000-0 45673-3 0 9999 2 63215 97.4275 91.7168 0002889 179.1301 180.9940 15.21204367 18971 TEVEL2-1 1 63217U 25052H 25198.52047262 .00009809 00000-0 44542-3 0 9994 2 63217 97.4251 91.9144 0002558 195.4468 164.6689 15.20981175 19014 TEVEL2-2 1 63218U 25052J 25198.52073978 .00009773 00000-0 44379-3 0 9996 2 63218 97.4252 91.9154 0002583 197.2998 162.8150 15.20983709 19011 TEVEL2-3 1 63219U 25052K 25198.19206570 .00009863 00000-0 44799-3 0 9992 2 63219 97.4252 91.5903 0002530 197.8572 162.2575 15.20970988 18969 TEVEL2-8 1 63237U 25052AD 25198.15584700 .00008654 00000-0 40762-3 0 9995 2 63237 97.4315 91.4368 0006315 235.1692 124.8949 15.19741134 18941 TEVEL2-9 1 63238U 25052AE 25198.22560562 .00008754 00000-0 41309-3 0 9993 2 63238 97.4319 91.4995 0006418 235.1743 124.8888 15.19674377 18950 TEVEL2-7 1 63239U 25052AF 25198.22838923 .00008836 00000-0 41733-3 0 9995 2 63239 97.4317 91.4942 0006424 235.6147 124.4480 15.19642047 18954 HYDRA-W 1 63490U 25052BL 25198.49544898 .00021919 00000-0 88344-3 0 9994 2 63490 97.4263 92.2743 0009651 229.8983 130.1410 15.24808764 19032 HADES-ICM (SO-125) 1 63492U 25052BN 25198.52217099 .00021739 00000-0 88992-3 0 9999 2 63492 97.4269 92.2477 0009906 235.3632 124.6672 15.24284734 19033 /EX